Terminal Aerodrome Forecast
Issued by NWS La Crosse, WI

Home | Current Version | Previous Version | Text Only | Print | Product List | Glossary On
Versions: 1 2 3 4 5 6 7 8 9 10 11 12 13 14 15 16 17 18 19 20 21 22 23 24 25 26 27 28 29 30 31 32 33 34 35 36 37 38 39 40 41 42 43 44
000
FTUS43 KARX 012146 AAB
TAFRST
TAF AMD
KRST 012146Z 0122/0218 02018G26KT 4SM BLSN OVC035
     FM020100 01007KT P6SM BKN035
     FM020400 34006KT P6SM SKC
     FM021500 24008KT P6SM SCT250=

USA.gov is the U.S. government's official web portal to all federal, state and local government web resources and services.